SB KEPS @ AMSAT $ORB11342.O Orbital Elements 11342.OSCAR
HR AMSAT ORBITAL ELEMENTS FOR OSCAR SATELLITES FROM WA5QGD FORT WORTH,TX December 8, 2011 Send Subscribe/unsubscribe to KEPS at http://www.amsat.org/mailman/listinfo/keps BID: ORB11342.O TO ALL RADIO AMATEURS BT
Satellite: AO-07 Catalog number: 07530 Epoch time: 11341.57430702 Element set: 248 Inclination: 101.3965 deg RA of node: 341.2917 deg Eccentricity: 0.0011921 Arg of perigee: 300.4499 deg Mean anomaly: 059.5392 deg Mean motion: 12.53586026 rev/day Decay rate: -2.7e-07 rev/day^2 Epoch rev: 69591 Checksum: 291
Satellite: FO-29 Catalog number: 24278 Epoch time: 11341.91469870 Element set: 725 Inclination: 098.5714 deg RA of node: 102.8633 deg Eccentricity: 0.0350792 Arg of perigee: 167.0654 deg Mean anomaly: 193.9776 deg Mean motion: 13.52973381 rev/day Decay rate: 2.4e-07 rev/day^2 Epoch rev: 75595 Checksum: 346
Satellite: SO-33 Catalog number: 25509 Epoch time: 11341.41242644 Element set: 0117 Inclination: 031.4366 deg RA of node: 344.4801 deg Eccentricity: 0.0353135 Arg of perigee: 316.5735 deg Mean anomaly: 040.7573 deg Mean motion: 14.28593202 rev/day Decay rate: 1.595e-05 rev/day^2 Epoch rev: 68506 Checksum: 286
Satellite: RS-22 Catalog number: 27939 Epoch time: 11342.61635464 Element set: 881 Inclination: 097.8250 deg RA of node: 188.0955 deg Eccentricity: 0.0013920 Arg of perigee: 148.6387 deg Mean anomaly: 211.5651 deg Mean motion: 14.63811456 rev/day Decay rate: 1.245e-05 rev/day^2 Epoch rev: 43785 Checksum: 324
Satellite: VO-52 Catalog number: 28650 Epoch time: 11342.73776834 Element set: 968 Inclination: 097.6229 deg RA of node: 017.8823 deg Eccentricity: 0.0025872 Arg of perigee: 311.8294 deg Mean anomaly: 048.0732 deg Mean motion: 14.82504636 rev/day Decay rate: 2.504e-05 rev/day^2 Epoch rev: 35660 Checksum: 326
Satellite: SO-67 Catalog number: 35870 Epoch time: 11342.67103588 Element set: 476 Inclination: 097.2608 deg RA of node: 020.0973 deg Eccentricity: 0.0003322 Arg of perigee: 109.2939 deg Mean anomaly: 037.5138 deg Mean motion: 15.22186073 rev/day Decay rate: 7.850e-05 rev/day^2 Epoch rev: 12346 Checksum: 305
Satellite: HO-68 Catalog number: 36122 Epoch time: 11342.67653682 Element set: 994 Inclination: 100.3934 deg RA of node: 040.6640 deg Eccentricity: 0.0007518 Arg of perigee: 184.5998 deg Mean anomaly: 175.5052 deg Mean motion: 13.16291100 rev/day Decay rate: -4.4e-07 rev/day^2 Epoch rev: 9519 Checksum: 302
/EX SB KEPS @ AMSAT $ORB11342.D Orbital Elements 11342.MICROS
HR AMSAT ORBITAL ELEMENTS FOR THE MICROSATS FROM WA5QGD FORT WORTH,TX December 8, 2011 Send Subscribe/unsubscribe to KEPS at http://www.amsat.org/mailman/listinfo/keps BID: ORB11342.D TO ALL RADIO AMATEURS BT
Satellite: UO-11 Catalog number: 14781 Epoch time: 11341.95398121 Element set: 0735 Inclination: 097.9821 deg RA of node: 037.9058 deg Eccentricity: 0.0008226 Arg of perigee: 300.5565 deg Mean anomaly: 059.4837 deg Mean motion: 14.80215736 rev/day Decay rate: 1.326e-05 rev/day^2 Epoch rev: 49149 Checksum: 317
Satellite: AO-16 Catalog number: 20439 Epoch time: 11341.87158856 Element set: 343 Inclination: 098.4071 deg RA of node: 285.8740 deg Eccentricity: 0.0011488 Arg of perigee: 013.2574 deg Mean anomaly: 346.8907 deg Mean motion: 14.31990233 rev/day Decay rate: 3.75e-06 rev/day^2 Epoch rev: 14247 Checksum: 315
Satellite: LO-19 Catalog number: 20442 Epoch time: 11342.90209184 Element set: 266 Inclination: 098.3712 deg RA of node: 290.5673 deg Eccentricity: 0.0012110 Arg of perigee: 002.9781 deg Mean anomaly: 357.1473 deg Mean motion: 14.32213741 rev/day Decay rate: 4.74e-06 rev/day^2 Epoch rev: 14280 Checksum: 272
Satellite: AO-27 Catalog number: 22825 Epoch time: 11342.87265092 Element set: 978 Inclination: 098.5529 deg RA of node: 283.8937 deg Eccentricity: 0.0008990 Arg of perigee: 117.8538 deg Mean anomaly: 242.3552 deg Mean motion: 14.29407401 rev/day Decay rate: 3.17e-06 rev/day^2 Epoch rev: 94914 Checksum: 342
Satellite: IO-26 Catalog number: 22826 Epoch time: 11342.90981326 Element set: 725 Inclination: 098.5473 deg RA of node: 284.3531 deg Eccentricity: 0.0009709 Arg of perigee: 113.1426 deg Mean anomaly: 247.0778 deg Mean motion: 14.29675600 rev/day Decay rate: 3.02e-06 rev/day^2 Epoch rev: 94927 Checksum: 317
Satellite: GO-32 Catalog number: 25397 Epoch time: 11341.84244426 Element set: 0648 Inclination: 098.3432 deg RA of node: 325.2562 deg Eccentricity: 0.0002189 Arg of perigee: 112.7383 deg Mean anomaly: 247.4022 deg Mean motion: 14.23244444 rev/day Decay rate: 2.79e-06 rev/day^2 Epoch rev: 69666 Checksum: 306
Satellite: NO-44 Catalog number: 26931 Epoch time: 11341.81251602 Element set: 914 Inclination: 067.0521 deg RA of node: 256.1239 deg Eccentricity: 0.0004923 Arg of perigee: 274.6583 deg Mean anomaly: 085.3934 deg Mean motion: 14.29731997 rev/day Decay rate: 5.0e-07 rev/day^2 Epoch rev: 53174 Checksum: 300
Satellite: SO-50 Catalog number: 27607 Epoch time: 11342.54861928 Element set: 633 Inclination: 064.5553 deg RA of node: 157.7363 deg Eccentricity: 0.0083784 Arg of perigee: 285.7200 deg Mean anomaly: 073.4679 deg Mean motion: 14.72072553 rev/day Decay rate: 1.402e-05 rev/day^2 Epoch rev: 48175 Checksum: 320
Satellite: CO-55 Catalog number: 27844 Epoch time: 11341.62145447 Element set: 259 Inclination: 098.7055 deg RA of node: 347.8077 deg Eccentricity: 0.0010493 Arg of perigee: 059.7896 deg Mean anomaly: 300.4345 deg Mean motion: 14.20918099 rev/day Decay rate: 5.15e-06 rev/day^2 Epoch rev: 43754 Checksum: 331
Satellite: CO-57 Catalog number: 27848 Epoch time: 11342.57832938 Element set: 207 Inclination: 098.7127 deg RA of node: 348.0034 deg Eccentricity: 0.0010631 Arg of perigee: 062.0841 deg Mean anomaly: 298.1400 deg Mean motion: 14.20684659 rev/day Decay rate: 4.24e-06 rev/day^2 Epoch rev: 43762 Checksum: 305
Satellite: AO-51 Catalog number: 28375 Epoch time: 11341.51958188 Element set: 0139 Inclination: 098.1201 deg RA of node: 311.0635 deg Eccentricity: 0.0083040 Arg of perigee: 265.2760 deg Mean anomaly: 093.8877 deg Mean motion: 14.40863416 rev/day Decay rate: 5.97e-06 rev/day^2 Epoch rev: 39102 Checksum: 307
Satellite: CP3 Catalog number: 31129 Epoch time: 11342.56297442 Element set: 38 Inclination: 097.8894 deg RA of node: 356.6209 deg Eccentricity: 0.0102104 Arg of perigee: 359.8180 deg Mean anomaly: 000.2922 deg Mean motion: 14.52765500 rev/day Decay rate: 1.739e-05 rev/day^2 Epoch rev: 24615 Checksum: 294
Satellite: CO-65 Catalog number: 32785 Epoch time: 11342.72641670 Element set: 170 Inclination: 097.8297 deg RA of node: 043.1049 deg Eccentricity: 0.0014289 Arg of perigee: 331.9526 deg Mean anomaly: 028.0923 deg Mean motion: 14.82490610 rev/day Decay rate: 2.263e-05 rev/day^2 Epoch rev: 19539 Checksum: 312
Satellite: PRISM Catalog number: 33493 Epoch time: 11342.75472860 Element set: 218 Inclination: 098.1456 deg RA of node: 114.2396 deg Eccentricity: 0.0019310 Arg of perigee: 195.0235 deg Mean anomaly: 165.0409 deg Mean motion: 14.82771015 rev/day Decay rate: 6.547e-05 rev/day^2 Epoch rev: 15537 Checksum: 293
Satellite: SOHLA-1 Catalog number: 33496 Epoch time: 11341.93416540 Element set: 0597 Inclination: 098.0932 deg RA of node: 090.1532 deg Eccentricity: 0.0005760 Arg of perigee: 296.2739 deg Mean anomaly: 063.7873 deg Mean motion: 14.69796165 rev/day Decay rate: 9.61e-06 rev/day^2 Epoch rev: 15400 Checksum: 320
Satellite: TISAT-1 Catalog number: 36799 Epoch time: 11341.79873443 Element set: 0485 Inclination: 098.0853 deg RA of node: 051.6455 deg Eccentricity: 0.0016108 Arg of perigee: 076.9360 deg Mean anomaly: 283.3636 deg Mean motion: 14.81244155 rev/day Decay rate: 3.921e-05 rev/day^2 Epoch rev: 07600 Checksum: 316
Satellite: STUDSAT Catalog number: 36801 Epoch time: 11341.89317203 Element set: 296 Inclination: 098.0911 deg RA of node: 051.7978 deg Eccentricity: 0.0013952 Arg of perigee: 064.0535 deg Mean anomaly: 296.2115 deg Mean motion: 14.82399866 rev/day Decay rate: 1.0178e-04 rev/day^2 Epoch rev: 7601 Checksum: 306
Satellite: OOREOS Catalog number: 37224 Epoch time: 11330.25217324 Element set: 0033 Inclination: 071.9741 deg RA of node: 041.3371 deg Eccentricity: 0.0020052 Arg of perigee: 337.4654 deg Mean anomaly: 022.5620 deg Mean motion: 14.77385090 rev/day Decay rate: 2.151e-05 rev/day^2 Epoch rev: 00594 Checksum: 243
Satellite: FO-69 Catalog number: 37227 Epoch time: 11341.48162359 Element set: 0045 Inclination: 071.9723 deg RA of node: 017.1178 deg Eccentricity: 0.0018365 Arg of perigee: 314.3780 deg Mean anomaly: 045.5847 deg Mean motion: 14.76829035 rev/day Decay rate: 1.251e-05 rev/day^2 Epoch rev: 00764 Checksum: 309
Satellite: NANOSALD Catalog number: 37361 Epoch time: 11242.25215765 Element set: 0351 Inclination: 071.9735 deg RA of node: 221.4469 deg Eccentricity: 0.0025730 Arg of perigee: 245.3422 deg Mean anomaly: 114.7284 deg Mean motion: 15.22200108 rev/day Decay rate: 1.80112e-03 rev/day^2 Epoch rev: 03331 Checksum: 248
Satellite: FO-70 Catalog number: 37380 Epoch time: 11341.52303154 Element set: 0049 Inclination: 071.9760 deg RA of node: 017.3443 deg Eccentricity: 0.0018899 Arg of perigee: 311.5452 deg Mean anomaly: 048.4102 deg Mean motion: 14.76587263 rev/day Decay rate: 1.222e-05 rev/day^2 Epoch rev: 00754 Checksum: 282
/EX SB KEPS @ AMSAT $ORB11342.W Orbital Elements 11342.WEATHER
HR AMSAT ORBITAL ELEMENTS FOR WEATHER SATELLITES FROM WA5QGD FORT WORTH,TX December 8, 2011 Send Subscribe/unsubscribe to KEPS at http://www.amsat.org/mailman/listinfo/keps BID: ORB11342.W TO ALL RADIO AMATEURS BT
Satellite: NOAA-10 Catalog number: 16969 Epoch time: 11341.69100640 Element set: 0729 Inclination: 098.6034 deg RA of node: 008.9738 deg Eccentricity: 0.0013089 Arg of perigee: 077.9662 deg Mean anomaly: 282.2987 deg Mean motion: 14.27508842 rev/day Decay rate: 2.15e-06 rev/day^2 Epoch rev: 31240 Checksum: 316
